Wind_Speed
26 26 23 22 22 21 18 16 12 12 14 17 18 20 21 23 23 22 21 18 17 18 18 19 20 19 19 19 19 19 19 18 19 18 17 16 16 17 18 18 18 18
24 25 24 22 20 19 18 17 14 13 15 16 17 18 19 22 23 22 20 18 18 19 19 20 20 19 19 19 19 19 19 19 19 18 18 17 16 17 18 19 18 18
22 23 23 21 19 18 18 16 14 13 14 16 17 17 18 20 21 21 20 19 19 20 20 20 20 19 19 19 19 19 20 19 19 18 18 17 17 17 17 17 17 17
19 21 21 20 19 19 17 15 13 13 15 17 17 17 17 18 20 21 20 20 20 20 19 20 19 18 18 18 19 20 20 19 18 18 18 17 17 17 17 17 17 17
17 18 20 21 20 20 18 15 14 15 17 17 17 17 17 18 20 20 20 20 20 20 19 19 19 18 17 17 18 19 19 18 18 18 18 17 17 17 17 17 18 19
16 17 19 21 21 21 18 15 15 16 16 17 17 17 18 19 19 20 19 19 19 19 19 18 18 18 17 16 16 17 18 18 18 17 17 17 17 17 17 18 19 20
15 17 17 17 18 20 18 15 15 15 16 17 18 18 19 19 19 19 19 19 19 19 19 18 18 18 17 16 16 17 17 17 17 17 17 17 17 18 18 19 20 21
14 15 15 14 16 19 18 16 16 16 16 18 20 21 21 21 20 19 19 19 19 19 17 17 17 17 17 16 16 16 17 17 17 17 17 18 18 19 19 20 21 22
14 13 12 13 15 18 19 18 17 17 17 19 22 23 22 21 20 20 19 19 18 17 16 16 17 16 16 16 16 16 16 16 16 16 17 18 19 20 21 21 21 22
15 14 13 12 11 14 18 18 18 17 18 20 23 23 22 20 20 19 19 19 18 17 17 17 17 16 16 16 16 16 15 15 15 16 16 17 18 20 21 21 22 21
14 14 15 14 11 10 14 16 16 17 18 20 22 22 21 20 20 19 19 19 18 17 17 17 16 16 15 16 15 15 15 15 15 16 16 16 17 19 20 20 20 20
15 13 13 15 13 10 11 13 15 16 17 19 21 21 20 21 21 20 20 20 19 17 17 17 15 15 15 15 15 15 15 15 15 16 16 16 17 18 19 19 19 18
16 14 12 13 14 12 11 12 15 15 15 18 20 21 21 21 21 21 21 21 19 18 18 18 16 15 15 15 15 15 15 15 15 16 16 16 16 17 17 18 18 17
14 14 14 11 12 12 11 13 15 15 15 17 19 21 21 20 19 20 20 21 20 18 18 18 17 16 15 15 16 15 15 15 15 15 16 16 16 17 17 17 18 17
12 13 13 12 11 11 11 11 14 14 15 17 18 20 20 18 17 19 21 21 20 19 19 19 18 17 16 16 16 16 16 16 15 15 16 16 16 17 17 17 17 18
11 11 11 11 10 12 13 12 13 15 16 17 19 20 20 18 18 20 22 22 20 19 19 19 19 18 17 16 16 16 16 16 16 16 16 16 16 17 17 17 17 18
10 9 10 10 10 12 14 14 14 15 17 19 20 21 22 21 20 21 22 22 20 19 20 20 19 18 16 15 15 16 17 17 16 16 16 16 16 16 17 17 17 17
15 10 8 10 12 14 15 16 16 16 17 19 20 22 23 23 22 21 21 21 21 20 20 20 20 19 17 15 15 16 17 17 17 16 15 15 15 15 16 16 16 16
22 16 11 9 12 16 17 18 18 18 18 19 21 22 23 23 23 22 22 22 22 22 21 21 20 20 18 16 15 16 17 17 17 17 16 15 16 16 15 14 14 15
30 23 17 13 11 13 17 18 18 18 20 21 23 24 24 24 24 25 25 24 24 23 22 21 21 21 19 18 16 16 16 17 17 17 17 17 17 17 15 14 14 14
35 31 24 19 16 14 13 16 18 18 20 23 25 27 27 26 25 27 27 26 25 23 22 22 21 21 20 19 18 17 16 16 17 17 16 17 18 17 15 14 14 13
35 34 31 25 20 18 16 13 15 17 19 23 26 28 29 28 28 29 29 29 26 24 23 23 22 21 21 21 19 17 16 16 16 16 15 16 18 18 17 16 15 13
33 33 33 30 26 22 20 16 13 15 17 20 24 27 27 28 29 31 32 31 29 26 25 25 23 22 22 23 21 19 17 16 16 16 15 15 17 19 19 18 16 14
30 31 31 31 29 26 23 19 15 14 15 17 21 23 24 24 26 30 33 33 30 28 28 26 25 24 24 24 23 21 20 19 17 17 16 15 16 17 19 19 18 16
27 28 29 29 29 27 24 21 17 14 12 13 15 17 18 19 19 23 31 34 30 28 29 27 26 25 25 24 24 23 22 21 19 18 18 17 17 18 19 20 19 18
26 26 26 27 27 26 24 21 19 16 12 9 8 9 10 12 13 14 22 31 31 27 27 26 25 25 25 24 23 22 22 21 20 19 19 19 19 19 19 20 19 18
Wind_Direction
279 274 267 262 266 270 272 272 272 271 263 258 260 258 251 241 230 223 221 222 225 229 231 232 234 237 237 236 235 234 234 234 236 238 240 241 234 225 222 221 219 216
283 273 264 260 262 265 267 266 259 256 256 254 256 257 247 236 229 226 224 224 227 231 234 237 239 240 240 240 237 234 232 232 234 236 237 238 232 223 221 222 221 217
278 267 259 259 260 258 259 258 250 247 250 249 249 249 241 231 228 228 227 226 228 231 237 242 244 243 242 241 237 234 233 232 234 235 235 235 230 223 219 222 224 220
272 265 258 259 263 262 257 251 249 250 249 246 242 239 233 227 228 230 229 228 231 236 242 246 246 244 243 240 236 234 233 233 233 232 232 232 230 225 220 220 223 221
279 273 266 264 264 264 259 252 251 251 246 243 238 232 229 226 228 231 231 232 236 241 244 245 245 243 240 238 236 234 231 231 230 228 228 230 229 227 222 219 220 219
289 282 274 266 259 258 258 253 246 243 240 238 233 229 226 224 227 231 233 235 238 241 241 241 243 243 241 239 238 236 233 231 229 227 226 228 229 228 225 222 220 218
298 287 277 264 251 250 253 244 231 231 234 234 230 227 225 223 226 231 234 236 237 238 238 238 240 242 241 239 238 237 234 231 229 228 227 228 228 225 223 223 223 219
309 295 278 258 247 247 245 234 226 225 229 232 230 227 226 223 224 228 232 236 237 239 238 237 239 240 238 237 236 235 232 229 229 228 228 228 226 223 223 223 223 221
313 309 287 264 256 253 242 230 227 227 228 232 232 230 229 226 223 223 227 233 240 242 239 238 240 239 238 237 237 235 233 231 230 228 227 228 227 225 225 224 223 221
307 310 303 290 278 260 244 233 230 231 230 233 235 233 231 229 226 225 226 230 238 242 241 240 240 239 238 239 239 237 236 234 232 229 227 228 228 228 228 224 223 224
312 307 301 299 294 264 247 238 229 227 231 235 237 235 230 228 229 231 231 232 235 241 245 243 238 238 239 240 240 238 235 234 233 229 227 228 227 227 227 225 225 228
322 314 292 282 278 260 243 233 223 222 227 234 236 233 228 227 231 234 235 236 237 241 246 243 237 238 240 238 237 237 235 234 231 227 226 227 226 225 225 226 227 228
322 323 307 278 265 256 242 230 224 223 229 237 238 233 228 229 234 236 235 236 238 242 246 244 239 240 240 235 233 233 233 231 227 226 226 225 223 222 223 225 225 224
314 319 321 297 265 252 241 231 228 228 232 238 240 236 232 231 235 236 236 236 237 240 245 244 240 240 238 233 230 229 229 229 228 228 227 224 221 219 221 222 219 216
309 309 315 309 281 259 248 240 237 235 236 238 240 239 236 232 230 231 235 238 237 239 243 242 238 236 233 230 228 226 227 228 228 228 228 225 222 219 217 217 214 213
305 298 298 300 286 264 255 252 246 240 238 238 238 239 238 233 228 231 237 240 241 243 244 241 236 231 228 228 228 226 226 226 226 226 226 224 221 217 215 214 212 213
310 291 279 279 275 261 252 251 250 243 238 237 237 239 240 236 231 233 239 243 244 244 241 237 233 230 227 229 231 229 227 223 222 223 223 221 218 215 215 213 211 211
340 317 287 267 265 262 253 247 246 243 238 238 238 238 238 236 234 235 239 243 242 237 232 230 232 233 234 237 237 232 227 223 221 220 219 218 215 213 211 211 210 211
2 347 325 290 267 262 258 252 247 243 239 238 237 236 237 237 235 234 235 238 235 229 225 227 232 236 240 244 241 232 226 224 220 217 218 217 215 211 208 210 213 214
15 8 354 333 306 280 266 258 254 250 245 239 236 235 236 238 237 231 229 231 230 226 226 230 233 237 241 244 239 230 227 225 220 219 220 219 215 210 207 212 214 213
18 18 13 359 343 327 298 269 258 255 251 243 238 235 235 238 236 229 227 228 227 226 229 231 234 237 239 239 235 229 226 223 221 221 220 218 214 208 207 210 208 207
18 18 19 16 6 354 340 304 270 257 253 247 241 236 235 237 235 229 227 228 226 226 228 230 234 236 234 233 231 228 226 223 222 221 219 217 214 208 208 210 207 206
18 17 18 20 18 11 1 341 297 264 252 247 242 236 233 234 233 229 228 228 226 224 224 227 232 232 228 227 226 225 224 223 222 221 219 220 219 213 210 211 210 210
18 20 19 19 20 18 10 355 326 285 256 243 238 233 229 228 229 228 228 227 223 220 219 222 227 228 224 223 223 224 223 221 221 223 221 222 225 218 211 211 212 212
18 21 21 20 21 20 16 7 351 323 287 257 240 230 222 216 213 218 223 222 216 213 214 217 221 223 222 222 222 224 225 222 221 224 223 221 222 217 211 209 211 213
18 20 22 25 26 26 24 21 14 358 334 299 261 233 216 203 187 184 201 207 207 208 211 212 216 218 218 219 221 222 224 223 222 223 223 221 219 215 211 207 206 210
Height
1507 1507 1507 1508 1509 1510 1511 1513 1513 1514 1515 1516 1518 1520 1521 1521 1522 1524 1525 1526 1527 1528 1529 1530 1531 1532 1533 1534 1535 1536 1537 1538 1539 1540 1541 1542 1543 1544 1545 1546 1547 1549
1506 1505 1505 1506 1507 1508 1509 1510 1511 1511 1512 1514 1516 1518 1519 1519 1521 1522 1524 1525 1526 1527 1528 1529 1529 1530 1531 1532 1533 1534 1535 1536 1537 1538 1539 1540 1541 1542 1543 1544 1545 1547
1503 1503 1503 1504 1505 1506 1507 1507 1508 1508 1509 1512 1514 1516 1517 1518 1519 1521 1523 1525 1525 1526 1527 1527 1528 1528 1529 1531 1532 1533 1534 1535 1536 1537 1538 1539 1539 1540 1542 1543 1544 1546
1500 1500 1501 1502 1503 1504 1505 1506 1506 1506 1507 1510 1512 1514 1515 1516 1518 1520 1522 1523 1524 1525 1526 1526 1526 1526 1528 1529 1530 1531 1532 1533 1534 1535 1536 1537 1538 1539 1540 1542 1543 1545
1497 1497 1498 1499 1501 1502 1503 1504 1505 1505 1506 1508 1511 1513 1514 1515 1516 1518 1520 1522 1523 1523 1524 1524 1524 1525 1526 1527 1529 1530 1531 1532 1533 1533 1534 1535 1536 1538 1539 1540 1541 1543
1495 1495 1496 1497 1499 1500 1501 1502 1504 1505 1505 1507 1509 1511 1512 1513 1514 1517 1518 1520 1521 1522 1522 1523 1523 1523 1524 1526 1527 1529 1529 1530 1531 1532 1533 1534 1535 1536 1537 1538 1540 1541
1494 1494 1494 1495 1496 1498 1499 1500 1502 1503 1505 1507 1508 1509 1510 1510 1512 1515 1517 1518 1519 1520 1521 1521 1522 1523 1524 1525 1526 1527 1528 1528 1529 1530 1531 1532 1533 1534 1536 1537 1538 1539
1493 1493 1493 1493 1494 1495 1497 1499 1500 1502 1503 1505 1506 1507 1507 1508 1510 1513 1515 1516 1517 1518 1519 1520 1521 1521 1523 1524 1525 1526 1527 1527 1528 1529 1529 1531 1532 1533 1534 1535 1537 1538
1492 1491 1491 1492 1492 1492 1495 1497 1499 1500 1502 1503 1505 1505 1506 1506 1508 1511 1513 1515 1516 1517 1517 1518 1519 1520 1521 1522 1523 1524 1525 1526 1527 1527 1528 1529 1530 1531 1533 1534 1535 1537
1490 1490 1490 1490 1490 1491 1492 1495 1498 1499 1500 1501 1503 1504 1505 1506 1507 1509 1511 1512 1514 1516 1517 1517 1518 1519 1520 1521 1522 1523 1524 1524 1525 1526 1527 1528 1529 1530 1531 1533 1534 1535
1488 1488 1488 1488 1488 1489 1491 1494 1496 1497 1498 1500 1501 1503 1504 1504 1505 1507 1509 1510 1512 1514 1515 1516 1517 1518 1519 1520 1521 1521 1522 1523 1524 1525 1526 1527 1528 1529 1530 1531 1533 1534
1487 1487 1487 1487 1487 1488 1489 1491 1493 1495 1496 1498 1500 1501 1502 1503 1503 1505 1507 1509 1510 1512 1513 1515 1516 1517 1518 1518 1519 1520 1521 1522 1522 1523 1524 1526 1527 1528 1529 1530 1532 1533
1487 1486 1486 1486 1486 1486 1487 1489 1491 1492 1494 1496 1499 1500 1501 1501 1502 1503 1505 1507 1509 1510 1512 1513 1514 1515 1516 1517 1518 1519 1519 1520 1521 1522 1523 1524 1526 1527 1528 1529 1530 1532
1486 1485 1485 1485 1486 1486 1487 1488 1489 1491 1493 1495 1497 1498 1499 1500 1500 1502 1504 1506 1507 1508 1510 1512 1513 1514 1515 1516 1517 1517 1518 1519 1520 1521 1522 1523 1524 1526 1527 1528 1529 1530
1485 1485 1484 1484 1485 1486 1487 1488 1489 1490 1492 1494 1496 1497 1498 1499 1499 1500 1502 1504 1505 1507 1509 1510 1511 1512 1513 1515 1516 1517 1517 1518 1519 1520 1521 1522 1523 1524 1525 1526 1527 1529
1485 1484 1484 1485 1485 1486 1487 1488 1489 1490 1491 1493 1495 1496 1497 1497 1498 1499 1500 1502 1503 1505 1507 1508 1510 1511 1512 1514 1515 1516 1517 1517 1518 1519 1520 1522 1523 1524 1525 1525 1526 1527
1484 1484 1484 1484 1485 1486 1486 1487 1488 1489 1490 1492 1493 1495 1496 1496 1497 1498 1499 1500 1501 1503 1505 1507 1508 1509 1511 1513 1514 1515 1516 1517 1517 1518 1519 1521 1522 1523 1524 1525 1526 1527
1484 1484 1484 1484 1484 1485 1485 1486 1487 1488 1489 1490 1491 1493 1494 1494 1495 1496 1497 1498 1500 1502 1503 1505 1506 1508 1509 1511 1513 1514 1516 1516 1517 1518 1519 1520 1521 1522 1523 1524 1525 1526
1485 1484 1484 1483 1483 1483 1484 1484 1485 1486 1488 1488 1489 1491 1492 1493 1494 1495 1496 1497 1498 1500 1502 1503 1504 1506 1508 1510 1512 1513 1514 1515 1516 1517 1518 1519 1521 1522 1523 1524 1525 1525
1486 1485 1484 1483 1483 1483 1483 1483 1484 1485 1486 1487 1487 1488 1489 1490 1491 1493 1494 1495 1497 1498 1500 1501 1502 1504 1506 1508 1510 1512 1513 1514 1515 1516 1517 1518 1520 1521 1522 1523 1524 1525
1488 1486 1484 1483 1482 1482 1482 1482 1483 1483 1484 1485 1486 1486 1488 1489 1490 1491 1493 1494 1495 1497 1498 1500 1501 1503 1505 1507 1509 1510 1512 1513 1514 1515 1516 1518 1519 1520 1522 1523 1524 1525
1490 1487 1485 1483 1482 1482 1482 1481 1481 1482 1482 1483 1484 1485 1486 1487 1488 1490 1491 1492 1494 1495 1497 1498 1499 1501 1503 1505 1507 1509 1510 1512 1513 1514 1516 1517 1518 1519 1521 1522 1523 1524
1492 1490 1487 1485 1483 1482 1481 1481 1481 1481 1481 1481 1482 1483 1484 1485 1486 1488 1489 1490 1492 1493 1495 1496 1498 1500 1502 1504 1506 1507 1509 1510 1512 1513 1514 1515 1517 1518 1519 1521 1522 1523
1494 1492 1490 1487 1485 1483 1483 1483 1482 1481 1481 1481 1481 1481 1482 1483 1485 1486 1487 1488 1489 1491 1493 1494 1496 1498 1500 1502 1504 1506 1508 1509 1510 1512 1513 1514 1515 1516 1518 1519 1521 1522
1497 1495 1493 1491 1488 1486 1485 1485 1484 1483 1482 1482 1481 1481 1481 1481 1483 1484 1485 1485 1487 1490 1491 1492 1494 1496 1498 1500 1502 1504 1506 1508 1509 1511 1511 1512 1513 1515 1516 1518 1519 1521
1500 1498 1496 1494 1492 1490 1489 1488 1487 1486 1485 1484 1483 1483 1482 1482 1483 1485 1484 1482 1484 1488 1489 1490 1493 1494 1496 1499 1500 1502 1505 1506 1508 1509 1510 1511 1512 1513 1514 1516 1517 1519